Location: Barrio de Buenos Aires
(28.4500°N, 16.2667°W)
Time: 05:34:56
(UTC+00:00)

Cosmos 1624 Rocket - Pass Details

Date: 24 January 2020
Orbit: 758 x 783 km, 74.0° (Epoch: 17 February)

Event Time Altitude Azimuth Distance (km) Brightness Sun altitude
Rises 20:23:02 0° 189° (S) 3,251 7.5 -23.1°
Reaches altitude 10° 20:25:25 10° 187° (S) 2,324 6.7 -23.6°
Maximum altitude 20:30:41 72° 104° (ESE) 816 3.9 -24.7°
Enters shadow 20:30:56 71° 80° (E) 822 3.8 -24.8°
